{"data":{"norad_id":65108,"epoch":"2026-05-25T03:20:41.433216Z","epoch_age_seconds":60327,"freshness":"FRESH","line1":"1 65108U 25168C   26145.13936844 -.00000081  00000+0  92582-4 0  9997","line2":"2 65108  50.0048  48.4946 0010641  20.2816 339.8477 13.29320326 39627","mean_motion":13.29320326,"eccentricity":0.0010641,"inclination_deg":50.0048,"raan_deg":48.4946,"arg_perigee_deg":20.2816,"mean_anomaly_deg":339.8477,"bstar":9.2582e-5,"rev_number":3962,"period_min":108.32603487927,"perigee_km":1141.3180161668,"apogee_km":1157.337967162,"semimajor_km":7527.4649916644,"source":"CELESTRAK","updated_at":"2026-05-25T13:38:05.133821Z"}}